Regional Weather Roundup
Issued by NWS

Home | Current Version | Previous Version | Text Only | Print | Product List | Glossary On
Versions: 1 2 3 4 5 6 7 8 9 10 11 12 13 14 15 16 17 18 19 20 21 22 23 24 25 26 27
000
ASUS44 KLUB 031110
RWRLUB
WEST TEXAS WEATHER ROUNDUP
NATIONAL WEATHER SERVICE LUBBOCK TX
600 AM CDT TUE AUG 03 2021

NOTE: "FAIR" INDICATES FEW OR NO CLOUDS BELOW 12,000 FEET WITH NO
SIGNIFICANT WEATHER AND/OR OBSTRUCTIONS TO VISIBILITY.

TXZ004-006>008-010-012-014-016-OKZ002-031200-
TEXAS PANHANDLE/OKLAHOMA PANHANDLE

CITY           SKY/WX    TMP DP  RH WIND       PRES   REMARKS
AMARILLO       PTCLDY    57  32  38 SW9       30.18S
BORGER         PTCLDY    62  53  72 CALM      30.17S
CANADIAN       CLEAR     55  53  95 SW3       30.14S
DALHART        PTCLDY    58  54  86 S5        30.21F
DUMAS          PTCLDY    59  49  69 SW7       30.20S
GUYMON         MOCLDY    61  55  81 SW3       30.16S
HEREFORD       PTCLDY    55  51  89 SW3       30.23R
PAMPA          PTCLDY    60  55  84 SW8       30.18F
PERRYTON       CLEAR     58  52  81 SW5       30.14F
$$

TXZ026-029-035-045-048-031200-
SOUTHERN PANHANDLE/SOUTH PLAINS/ROLLING PLAINS

CITY           SKY/WX    TMP DP  RH WIND       PRES   REMARKS
CHILDRESS      CLEAR     62  56  80 NW3       30.13S
SEMINOLE       CLEAR     62  59  88 CALM      30.22S
LUBBOCK        CLEAR     60  52  74 CALM      30.18S
PLAINVIEW      CLEAR     56  53  89 CALM      30.20R
SNYDER         CLEAR     63  55  77 N5        30.14
$$

TXZ052-054-060>062-072-078-127-140-154-169-031200-
PERMIAN BASIN/CONCHO VALLEY/BIG COUNTRY/EDWARDS PLATEAU

CITY           SKY/WX    TMP DP  RH WIND       PRES   REMARKS
ABILENE        CLEAR     61  56  83 S3        30.09F
BIG SPRING     CLEAR     64  60  86 CALM      30.13F
BRADY            N/A    N/A N/A N/A MISG        N/A
JUNCTION       MOCLDY    70  67  90 NW3       30.07R FOG
MIDLAND        CLEAR     64  59  83 CALM      30.14S
ODESSA         CLEAR     64  56  75 CALM      30.15S
SAN ANGELO     CLEAR     63  60  90 CALM      30.09S
SONORA         CLEAR     64  64 100 CALM      30.14R
SWEETWATER     CLEAR     64  53  67 CALM      30.15R
WINK           CLEAR     66  61  84 NE7       30.13R
$$

TXZ055-058-074-075-080-082-031200-
FAR WEST/SOUTHWEST MOUNTAINS/TRANS PECOS

CITY           SKY/WX    TMP DP  RH WIND       PRES   REMARKS
ALPINE         CLEAR     63  61  95 CALM      30.27F
DRYDEN           N/A     74  68  81 N6        30.10S
EL PASO        CLOUDY    72  60  66 E5        30.17S
FORT STOCKTON  CLEAR     68  66  93 S5        30.14S
GUADALUPE PASS CLEAR     61  56  83 NE14      30.28F
MARFA          CLEAR     61  59  93 N7        30.25S
PECOS          CLEAR     69  68  96 CALM      30.13S
PRESIDIO       FAIR      74  63  69 N6        30.13S
$$

TXZ014-016-019-021>030-083-031200
TEXAS TECH WEST TEXAS MESONET/TEXAS PANHANDLE/NORTHERN SOUTH PLAINS

CITY           SKY/WX    TMP DP  RH WIND       PRES   REMARKS
ABERNATHY 5ENE   N/A     57  52  84 CALM      30.20S
AMARILLO 9NNE    N/A     55  52  90 CALM      30.20R
AMARILLO 7SSE    N/A     53  51  90 W7        30.22S
AMHERST 1NE      N/A     58  55  92 CALM      30.22R
BOOTLEG 11WNW    N/A     56  51  81 S9        30.27S
CANADIAN 6E      N/A     57  57 100 W7        30.13R
CAPROCK CYN SP   N/A     61  54  75 W9        30.16S
CHILDRESS 2NNE   N/A     62  57  84 W7        30.13S
CLARENDON 2WSW   N/A     59  53  81 CALM      30.17R
CLAUDE 12SW      N/A     62  49  62 S5        30.20R
DIMMITT 2NE      N/A     59  51  75 S5        30.23R
FLOYDADA 2NNE    N/A     53  51  92 W5        30.18S
FRIONA 2NE       N/A     56  54  90 CALM      30.23S
GOODLETT 3W      N/A     64  57  78 NW7       30.10S
HART 3N          N/A     55  51  87 W6        30.22R
HEREFORD 2NW     N/A     54  50  88 W6        30.23S
MCLEAN 1E        N/A     61  54  77 NW7       30.15S
MEMPHIS 1NE      N/A     60  57  91 CALM      30.14S
MULESHOE 2SSW    N/A     51  50  93 CALM      30.22F
OLTON 6S         N/A     53  51  93 W6        30.20S
PALO DURO SP     N/A     58  49  72 SW5       30.21S
PAMPA 2E         N/A     60  52  75 SW6       30.18S
PLAINVIEW 1S     N/A     57  54  91 CALM      30.20S
SILVERTON 7ESE   N/A     55  53  92 W6        30.19R
TULIA 2ENE       N/A     58  50  76 SW6       30.20F
TURKEY 2WSW      N/A     62  55  78 W9        30.15R
UMBARGER 3NNE    N/A     56  49  76 SW6       30.23S
$$

TXZ033>036-039>041-045>048-031200
TEXAS TECH WEST TEXAS MESONET/SOUTH PLAINS

CITY           SKY/WX    TMP DP  RH WIND       PRES   REMARKS
AIKEN 3WSW       N/A     55  54  96 W5        30.20S
ANDREWS 2NE      N/A     62  60  93 E3        30.17S
ANTON 6SSW       N/A     56  53  89 NW5       30.20S
BROWNFIELD 2S    N/A     61  57  85 CALM      30.19S
DENVR CTY 7WNW   N/A     60  57  88 CALM      30.21R
GAIL 2ESE        N/A     60  56  87 NW3       30.14S
LAMESA 2SE       N/A     59  55  88 CALM      30.17S
LUBBOCK 3WNW     N/A     57  54  87 NW3       30.19S
MORTON 1ENE      N/A     57  54  90 W3        30.22S
ODONNELL 1N      N/A     60  58  92 CALM      30.17S
PLAINS 3N        N/A     59  56  88 CALM      30.21S
RALLS 1SE        N/A     59  54  82 N5        30.18F
REESE CENTER     N/A     59  55  85 NW5       30.19S
SEAGRAVES 1SW    N/A     59  57  93 CALM      30.19S
SEMINOLE 2NNE    N/A     61  58  91 NE5       30.19R
SLATON 2NE       N/A     61  54  75 CALM      30.18F
SNYDER 3E        N/A     63  55  76 N3        30.13S
SUNDOWN 8SW      N/A     56  53  88 CALM      30.21R
TAHOKA 3NNE      N/A     58  56  94 NW3       30.18R
WOLFFORTH 6SSW   N/A     58  55  89 NW7       30.19S
$$

TXZ031-032-036>038-042>044-031200-
TEXAS TECH WEST TEXAS MESONET/ROLLING PLAINS

CITY           SKY/WX    TMP DP  RH WIND       PRES   REMARKS
ASPERMONT 3NE    N/A     57  56  94 CALM      30.11S
FLUVANNA 3WNW    N/A     60  54  78 VRB3      30.15S
GRAHAM 5SSW      N/A     65  53  64 N7        30.16S
GUTHRIE 10WSW    N/A     63  56  79 CALM      30.12S
HASKELL 1NW      N/A     63  60  91 N7        30.09S
JAYTON 1SSE      N/A     57  54  87 W5        30.12S
KNOX CITY 3NW    N/A     62  61  96 CALM      30.09S
LK A HENRY 1NW   N/A     58  54  88 CALM      30.14S
NORTHFIELD 1S    N/A     58  54  89 W6        30.14S
ODELL 4ENE       N/A     59  58  96 CALM      30.11R
PADUCAH 10SW     N/A     64  57  80 W7        30.14S
POST 1NE         N/A     61  53  76 NW7       30.15S
RRING SPRGS 3N   N/A     58  53  83 W9        30.16R
SEYMOUR 3NW      N/A     60  58  91 CALM      30.08F
SPUR 1W          N/A     60  55  86 NW6       30.13S
WEINERT 2NNE     N/A     64  62  92 CALM      30.10S
WHITE RVR 6NE    N/A     61  54  78 NW7       30.16S
$$

TXZ052-054-060>062-072-078-127-140-154-169-031200-
TEXAS TECH WEST TEXAS MESONET/PERMIAN BASIN/
CONCHO VALLEY/BIG COUNTRY/EDWARDS PLATEAU

CITY           SKY/WX    TMP DP  RH WIND       PRES   REMARKS
COYANOSA 2N      N/A     67  64  89 CALM      30.14R
JUNCTION 1SSW    N/A     70  70 100 CALM      30.08R
MERTZON 3NNE     N/A     58  58 100 CALM      30.13R
SAN ANGELO 7NW   N/A     63  57  82 NW5       30.10S
STRLNG CT 4WSW   N/A     54  54 100 CALM      30.14S
ST LAWRNCE 5SW   N/A     61  55  81 NE6       30.14S
SWEETWATR 11SW   N/A     62  56  78 N7        30.14S
WALL 1E          N/A     61  57  89 CALM      30.11S
$$

TXZ055-058-074-075-080-082-031200-
TEXAS TECH WEST TEXAS MESONET/FAR WEST/SOUTHWEST MOUNTAINS/TRANS PECOS

CITY           SKY/WX    TMP DP  RH WIND       PRES   REMARKS
PRSMN GAP BBNP   N/A     74  66  76 N9        30.13R
GUADLPE MTN NP   N/A     60  55  83 N6        30.30S
$$



USA.gov is the U.S. government's official web portal to all federal, state and local government web resources and services.